When you browse on this site, cookies collect data to enhance your experience and personalize the content and advertising you see.
Visit our Privacy Policy to learn more. By continuing to use the site, you agree to this use of cookies and data.
  • In Hungary
  • List of Countries
  • For 7 days
  • Water Temperature
  • Weather Map
  • News
  • Weather Widgets
  • user-avatar
    Login

    Hourly Weather Rogovoy

    Today, 23 October, Wednesday

    Time Temperature Precipitation Wind Pressure Humidity
    00:00 +10°C° 0 mm 2 mps 747 mmHg 74%
    01:00 +11°C° 0 mm 1 mps 747 mmHg 77%
    02:00 +10°C° 0 mm 1 mps 747 mmHg 80%
    03:00 +10°C° 0 mm 1 mps 747 mmHg 83%
    04:00 +10°C° 0 mm 1 mps 747 mmHg 84%
    05:00 +10°C° 0 mm 1 mps 747 mmHg 84%
    06:00 +10°C° 0 mm 1 mps 747 mmHg 84%
    07:00 +11°C° 0 mm 1 mps 747 mmHg 79%
    08:00 +12°C° 0 mm 2 mps 748 mmHg 75%
    09:00 +13°C° 0 mm 2 mps 748 mmHg 70%
    10:00 +15°C° 0 mm 2 mps 747 mmHg 62%
    11:00 +16°C° 0 mm 2 mps 747 mmHg 55%
    12:00 +18°C° 0 mm 3 mps 747 mmHg 47%
    13:00 +18°C° 0 mm 3 mps 747 mmHg 45%
    14:00 +19°C° 0 mm 3 mps 747 mmHg 42%
    15:00 +19°C° 0 mm 3 mps 746 mmHg 40%
    16:00 +18°C° 0 mm 2 mps 747 mmHg 44%
    17:00 +16°C° 0 mm 2 mps 747 mmHg 48%
    18:00 +15°C° 0 mm 2 mps 747 mmHg 52%
    19:00 +14°C° 0 mm 2 mps 747 mmHg 55%
    20:00 +14°C° 0 mm 2 mps 747 mmHg 58%
    21:00 +13°C° 0 mm 2 mps 747 mmHg 60%
    22:00 +12°C° 0 mm 2 mps 747 mmHg 63%
    23:00 +12°C° 0 mm 1 mps 747 mmHg 65%

    Tomorrow, 24 October, Thursday

    Time Temperature Precipitation Wind Pressure Humidity
    00:00 +12°C° 0 mm 1 mps 747 mmHg 67%
    01:00 +11°C° 0 mm 1 mps 746 mmHg 68%
    02:00 +11°C° 0 mm 1 mps 746 mmHg 70%
    03:00 +11°C° 0 mm 1 mps 746 mmHg 71%
    04:00 +10°C° 0 mm 1 mps 746 mmHg 72%
    05:00 +10°C° 0 mm 1 mps 746 mmHg 73%
    06:00 +10°C° 0 mm 1 mps 746 mmHg 75%
    07:00 +11°C° 0 mm 1 mps 746 mmHg 70%
    08:00 +12°C° 0 mm 2 mps 746 mmHg 66%
    09:00 +14°C° 0 mm 2 mps 747 mmHg 61%
    10:00 +15°C° 0 mm 2 mps 746 mmHg 56%
    11:00 +17°C° 0 mm 2 mps 746 mmHg 51%
    12:00 +18°C° 0 mm 3 mps 746 mmHg 46%
    13:00 +19°C° 0 mm 3 mps 746 mmHg 44%
    14:00 +19°C° 0 mm 3 mps 746 mmHg 42%
    15:00 +19°C° 0 mm 3 mps 745 mmHg 41%
    16:00 +18°C° 0 mm 3 mps 745 mmHg 45%
    17:00 +17°C° 0 mm 3 mps 746 mmHg 50%
    18:00 +14°C° 0 mm 3 mps 746 mmHg 54%
    19:00 +14°C° 0 mm 3 mps 745 mmHg 56%
    20:00 +14°C° 0 mm 2 mps 745 mmHg 57%
    21:00 +13°C° 0 mm 2 mps 745 mmHg 58%
    22:00 +13°C° 0 mm 2 mps 745 mmHg 60%
    23:00 +13°C° 0 mm 2 mps 745 mmHg 61%

    Day after tomorrow, 25 October, Friday

    Time Temperature Precipitation Wind Pressure Humidity
    00:00 +12°C° 0 mm 2 mps 745 mmHg 63%
    01:00 +12°C° 0 mm 2 mps 745 mmHg 69%
    02:00 +12°C° 0 mm 2 mps 745 mmHg 76%
    03:00 +10°C° 0 mm 2 mps 745 mmHg 82%
    04:00 +10°C° 0 mm 2 mps 745 mmHg 85%
    05:00 +10°C° 0 mm 2 mps 745 mmHg 87%
    06:00 +9°C° 0 mm 2 mps 744 mmHg 90%
    07:00 +10°C° 0 mm 2 mps 745 mmHg 85%
    08:00 +12°C° 0 mm 2 mps 745 mmHg 80%
    09:00 +12°C° 0 mm 3 mps 745 mmHg 75%
    10:00 +14°C° 0 mm 3 mps 745 mmHg 69%
    11:00 +16°C° 0 mm 3 mps 745 mmHg 63%
    12:00 +18°C° 0 mm 4 mps 745 mmHg 57%
    13:00 +18°C° 0 mm 4 mps 745 mmHg 57%
    14:00 +18°C° 0 mm 3 mps 744 mmHg 56%
    15:00 +18°C° 0 mm 3 mps 744 mmHg 56%
    16:00 +17°C° 0 mm 3 mps 744 mmHg 59%
    17:00 +16°C° 0 mm 3 mps 745 mmHg 63%
    18:00 +15°C° 0 mm 2 mps 745 mmHg 66%
    19:00 +15°C° 0 mm 2 mps 745 mmHg 67%
    20:00 +14°C° 0 mm 2 mps 745 mmHg 68%
    21:00 +14°C° 0 mm 2 mps 745 mmHg 69%
    22:00 +13°C° 0 mm 2 mps 745 mmHg 71%
    23:00 +13°C° 0 mm 2 mps 745 mmHg 73%

    26 October, Saturday

    Time Temperature Precipitation Wind Pressure Humidity
    00:00 +12°C° 0 mm 2 mps 745 mmHg 74%
    01:00 +12°C° 0 mm 2 mps 745 mmHg 76%
    02:00 +12°C° 0 mm 2 mps 745 mmHg 77%
    03:00 +12°C° 0 mm 2 mps 745 mmHg 79%
    04:00 +10°C° 0 mm 2 mps 745 mmHg 80%
    05:00 +10°C° 0 mm 2 mps 745 mmHg 82%
    06:00 +11°C° 0 mm 1 mps 745 mmHg 84%
    07:00 +12°C° 0 mm 1 mps 745 mmHg 81%
    08:00 +13°C° 0 mm 2 mps 745 mmHg 78%
    09:00 +14°C° 0 mm 2 mps 745 mmHg 75%
    10:00 +15°C° 0 mm 2 mps 745 mmHg 72%
    11:00 +16°C° 0 mm 3 mps 745 mmHg 69%
    12:00 +17°C° 0 mm 3 mps 745 mmHg 65%
    13:00 +18°C° 0 mm 3 mps 745 mmHg 65%
    14:00 +18°C° 0 mm 3 mps 745 mmHg 65%
    15:00 +18°C° 0 mm 3 mps 745 mmHg 64%
    16:00 +18°C° 0 mm 3 mps 745 mmHg 68%
    17:00 +17°C° 0 mm 2 mps 745 mmHg 71%
    18:00 +16°C° 0 mm 2 mps 745 mmHg 74%
    19:00 +16°C° 0 mm 1 mps 745 mmHg 76%
    20:00 +16°C° 0 mm 1 mps 745 mmHg 77%
    21:00 +15°C° 0 mm 1 mps 746 mmHg 79%
    22:00 +15°C° 0 mm 2 mps 745 mmHg 82%
    23:00 +14°C° 0 mm 2 mps 745 mmHg 86%

    27 October, Sunday

    Time Temperature Precipitation Wind Pressure Humidity
    00:00 +13°C° 0 mm 2 mps 745 mmHg 89%
    01:00 +13°C° 0 mm 1 mps 745 mmHg 91%
    02:00 +12°C° 0 mm 1 mps 745 mmHg 93%
    03:00 +12°C° 0 mm 1 mps 745 mmHg 95%
    04:00 +12°C° 0 mm 1 mps 745 mmHg 96%
    05:00 +12°C° 0 mm 1 mps 745 mmHg 96%
    06:00 +12°C° 0 mm 1 mps 745 mmHg 97%
    07:00 +12°C° 0 mm 1 mps 745 mmHg 94%
    08:00 +13°C° 0 mm 1 mps 745 mmHg 91%
    09:00 +14°C° 0 mm 1 mps 745 mmHg 88%
    10:00 +15°C° 0 mm 2 mps 745 mmHg 84%
    11:00 +16°C° 0 mm 2 mps 745 mmHg 80%
    12:00 +16°C° 0 mm 2 mps 744 mmHg 77%
    13:00 +17°C° 0 mm 2 mps 744 mmHg 74%
    14:00 +18°C° 0 mm 2 mps 744 mmHg 70%
    15:00 +18°C° 0 mm 3 mps 743 mmHg 67%
    16:00 +17°C° 0 mm 2 mps 743 mmHg 71%
    17:00 +17°C° 0 mm 2 mps 743 mmHg 74%
    18:00 +16°C° 0 mm 1 mps 743 mmHg 77%
    19:00 +15°C° 0 mm 1 mps 743 mmHg 75%
    20:00 +15°C° 0 mm 1 mps 743 mmHg 73%
    21:00 +14°C° 0 mm 2 mps 743 mmHg 71%
    22:00 +14°C° 0 mm 1 mps 743 mmHg 68%
    23:00 +13°C° 0 mm 1 mps 743 mmHg 64%

    28 October, Monday

    Time Temperature Precipitation Wind Pressure Humidity
    00:00 +12°C° 0 mm 1 mps 742 mmHg 61%
    01:00 +12°C° 0 mm 1 mps 742 mmHg 62%
    02:00 +11°C° 0 mm 0 mps 742 mmHg 64%
    03:00 +11°C° 0 mm 0 mps 742 mmHg 65%
    04:00 +11°C° 0 mm 0 mps 742 mmHg 69%
    05:00 +11°C° 0 mm 1 mps 742 mmHg 72%
    06:00 +11°C° 0 mm 1 mps 742 mmHg 76%
    07:00 +13°C° 0 mm 1 mps 742 mmHg 72%
    08:00 +14°C° 0 mm 2 mps 741 mmHg 69%
    09:00 +15°C° 0 mm 2 mps 741 mmHg 66%
    10:00 +17°C° 0 mm 2 mps 741 mmHg 60%
    11:00 +19°C° 0 mm 2 mps 741 mmHg 55%
    12:00 +20°C° 0 mm 3 mps 741 mmHg 49%
    13:00 +21°C° 0 mm 3 mps 741 mmHg 46%
    14:00 +21°C° 0 mm 3 mps 741 mmHg 42%
    15:00 +22°C° 0 mm 3 mps 740 mmHg 39%
    16:00 +20°C° 0 mm 2 mps 740 mmHg 44%
    17:00 +18°C° 0 mm 2 mps 740 mmHg 49%
    18:00 +18°C° 0 mm 1 mps 740 mmHg 54%
    19:00 +16°C° 0 mm 1 mps 740 mmHg 56%
    20:00 +16°C° 0 mm 1 mps 740 mmHg 58%
    21:00 +15°C° 0 mm 2 mps 740 mmHg 60%
    22:00 +15°C° 0 mm 2 mps 740 mmHg 61%
    23:00 +15°C° 0 mm 2 mps 740 mmHg 63%

    29 October, Tuesday

    Time Temperature Precipitation Wind Pressure Humidity
    00:00 +14°C° 0 mm 2 mps 740 mmHg 65%
    01:00 +14°C° 0 mm 2 mps 740 mmHg 67%
    02:00 +13°C° 0 mm 3 mps 740 mmHg 68%
    03:00 +12°C° 0 mm 3 mps 740 mmHg 70%
    04:00 +12°C° 0 mm 3 mps 740 mmHg 73%
    05:00 +12°C° 0 mm 3 mps 740 mmHg 75%
    06:00 +11°C° 0 mm 3 mps 740 mmHg 77%
    07:00 +13°C° 0 mm 3 mps 740 mmHg 74%
    08:00 +14°C° 0 mm 3 mps 740 mmHg 70%
    09:00 +16°C° 0 mm 3 mps 740 mmHg 66%
    10:00 +17°C° 0 mm 3 mps 739 mmHg 60%
    11:00 +19°C° 0 mm 3 mps 739 mmHg 55%
    12:00 +20°C° 0 mm 3 mps 739 mmHg 49%
    13:00 +20°C° 0 mm 3 mps 739 mmHg 48%
    14:00 +20°C° 0 mm 3 mps 739 mmHg 47%
    15:00 +20°C° 0 mm 3 mps 739 mmHg 47%
    16:00 +19°C° 0.1 mm 3 mps 739 mmHg 51%
    17:00 +18°C° 0.1 mm 2 mps 739 mmHg 55%
    18:00 +17°C° 0.1 mm 2 mps 739 mmHg 59%
    19:00 +16°C° 0.3 mm 3 mps 739 mmHg 63%
    20:00 +16°C° 0.3 mm 3 mps 740 mmHg 68%
    21:00 +14°C° 0.3 mm 3 mps 740 mmHg 72%
    22:00 +13°C° 0.1 mm 4 mps 740 mmHg 73%
    23:00 +12°C° 0.1 mm 4 mps 740 mmHg 74%
    Show more